Location: *
(48.8489°N, 2.3218°E)
Time: 01:57:13
(UTC+00:00)

Cosmos 2184 Rocket - Pass Details

Date: 23 August 2019
Orbit: 958 x 1003 km, 82.9° (Epoch: 18 September)

Event Time Altitude Azimuth Distance (km) Brightness Sun altitude
Rises 21:20:55 0° 351° (N) 3,658 8.0 -21.1°
Reaches altitude 10° 21:23:26 10° 354° (N) 2,705 7.1 -21.4°
Maximum altitude 21:29:37 73° 79° (E) 1,003 3.9 -22.0°
Enters shadow 21:31:39 44° 152° (SSE) 1,301 4.2 -22.2°
